Regional Weather Roundup
Issued by NWS Newport/Morehead, NC

Current Version | Previous Version | Text Only | Print | Product List | Glossary On
Versions: 1 2 3 4 5 6 7 8 9 10 11 12 13 14 15 16 17 18 19 20 21 22 23 24 25 26 27 28 29 30 31 32 33 34 35 36 37 38 39 40 41 42 43 44 45 46 47 48 49 50
000
ASUS42 KMHX 181412
RWRMHX
WEATHER ROUNDUP FOR EASTERN NORTH CAROLINA
NATIONAL WEATHER SERVICE NEWPORT/MOREHEAD CITY NC
1000 AM EDT SAT APR 18 2015

NOTE: "FAIR" INDICATES FEW OR NO CLOUDS BELOW 12,000 FEET
WITH NO SIGNIFICANT WEATHER AND/OR OBSTRUCTIONS TO VISIBILITY

NCZ015>017-031-032-045>047-102-103-181500-
NORTH COAST

CITY           SKY/WX    TMP DP  RH WIND       PRES   REMARKS
EDENTON        PTSUNNY   73  64  75 N5        29.98F
ELIZABETH CITY PTSUNNY   73  64  73 N8        29.99S
KITTY HAWK     PTSUNNY   70  65  85 CALM      29.98R
MANTEO         CLOUDY    71  64  79 N5        29.99S

$$

NCZ045>047-081-094-103-104-181500-
CENTRAL COAST

CITY           SKY/WX    TMP DP  RH WIND       PRES   REMARKS
FRISCO         LGT RAIN  66  63  90 VRB3      29.99S
SWANQUARTER      N/A     70 N/A N/A NW1       29.94S

$$

NCZ095-097-098-100-101-181500-
SOUTHERN COAST

CITY           SKY/WX    TMP DP  RH WIND       PRES   REMARKS
BEAUFORT       LGT RAIN  69  67  93 CALM      30.00R
CEDAR ISLAND     N/A     70 N/A N/A E1        30.03S
JACKSONVILLE   RAIN      66  65  96 S5        30.00S FOG
PINEY ISLAND   CLOUDY   N/A N/A N/A CALM      29.99S
WILMINGTON     LGT RAIN  68  66  93 NE10      30.00S


$$

NCZ011>013-027>030-043-044-078>080-089-090>093-098-181500-
COASTAL PLAIN

CITY           SKY/WX    TMP DP  RH WIND       PRES   REMARKS
AHOSKIE        MOSUNNY   71  63  76 N6        29.99S
CLINTON        DRIZZLE   69  67  92 CALM      30.01R
ELIZABETHTOWN  RAIN      67  67 100 E3        30.01S
GOLDSBORO      PTSUNNY   71  65  80 NE3       29.98R
GREENVILLE     CLOUDY    68  66  94 CALM      30.01R
HAVELOCK       CLOUDY    72  67  84 VRB3      30.00F
KENANSVILLE    PTSUNNY   69  65  86 CALM      30.01R
KINSTON        CLOUDY    72  66  83 NE6       30.00R
NEW BERN       CLOUDY    73  65  75 E5        30.00S
RICHLANDS      CLOUDY    66  63  88 S5        30.01S
ROCKY MOUNT    PTSUNNY   70  63  78 VRB5      30.00R
WASHINGTON     CLOUDY    68  65  90 CALM      29.99S
WHITEVILLE     RAIN      66  65  96 NE3       30.00S

$$

AMZ130-135-150-152-154-156-158-170-250-252-270-ANZ085-086-088-633-658-670-181500-
MARINE OBSERVATIONS

STATION/POSITION TIME  TEMP    WIND        PRES    WAVE   SWELL
                       AIR SEA DIR/SP/G            HT/PER HT/PER
                 (UTC) (F)     (DEG/KT/KT) (MB)    (FT/S) (FT/S)
CHESAPEAKE LIGHT 1400   62     350/ 11/ 11 1016.2
64 E VA BEACH    1350   57 55  320/  4/  4 1014.9    4/ 9   3/ 9
DUCK             1300   68 53  300/  6/  8 1014.5
2 E DUCK         1311      54                N/A     3/ 8   2/11
10 NE DUCK       NOT AVBL
OREGON INLET     1300   64 61  200/  3/  3 1015.6
HATTERAS CG      1300   67 67   50/  2/  4 1015.1
DIAMOND BUOY     1350   70 75   30/ 10/ 12 1015.7    5/ 9   5/ 9
CAPE LOOKOUT     1400   67      40/  5/  5 1015.6
BEAUFORT LAB     1300   66 62  350/  4/  5 1014.8
27 SE WRIGHTSVLE 1300   67 73   40/ 12/ 14   N/A
5 SE WRIGHTSVLE  NOT AVBL
225 S CAPE HAT   1350   73 74  240/  8/ 10 1014.7    6/10   5/10
41 SE CHARLESTON 1350   71 75  340/  4/  6 1014.4    3/ 9   3/ 9

$$



USA.gov is the U.S. government's official web portal to all federal, state and local government web resources and services.